Regional Weather Roundup
Issued by NWS Cleveland, OH

Home | Current Version | Previous Version | Graphics & Text | Print | Product List | Glossary On
Versions: 1 2 3 4 5 6 7 8 9 10 11 12 13 14 15 16 17 18 19 20 21 22 23 24 25 26 27 28 29 30 31 32 33 34 35 36 37 38 39 40 41 42 43 44 45 46 47 48 49 50
000
ASUS41 KCLE 272000
RWRCLE
OHIO REGIONAL WEATHER ROUNDUP
NATIONAL WEATHER SERVICE WILMINGTON, OH
300 PM EST TUE JAN 27 2015

NOTE: "FAIR" INDICATES FEW OR NO CLOUDS BELOW 12,000 FEET WITH NO
SIGNIFICANT WEATHER AND/OR OBSTRUCTIONS TO VISIBILITY.

OHZ001>008-015>018-024>027-034-035-043-044-272100-
   NORTHWEST OHIO

CITY           SKY/WX    TMP DP  RH WIND       PRES   REMARKS
DEFIANCE       SUNNY     26  10  50 N9        30.14R WCI  17
FINDLAY        SUNNY     22  12  65 NW9       30.10R WCI  12
TOLEDO EXPRESS SUNNY     25  11  55 NW12      30.11R WCI  14
TOLEDO EXEC    MOSUNNY   25  11  55 CALM      30.12R
LIMA           SUNNY     21  11  65 NW9       30.09R WCI  11
$$

OHZ009>014-019>023-028>033-038-089-272100-
   NORTHEAST OHIO

CITY           SKY/WX    TMP DP  RH WIND       PRES   REMARKS
CLE-HOPKINS    PTSUNNY   18   9  68 NW10      30.09R WCI   6
CLE-LAKEFRONT  MOSUNNY   19  10  68 N9        30.08R WCI   8
CUY CO. ARPT   PTSUNNY   21  12  68 N13       30.06R WCI   9
LORAIN-ELYRIA  SUNNY     19  10  68 N9        30.08R WCI   8
ASHTABULA      CLOUDY    19  12  74 N8        30.04R WCI   9
AKRON-CANTON   LGT SNOW  20  12  71 NW14      30.01R WCI   7
WOOSTER        NOT AVBL
MANSFIELD      CLOUDY    18  11  74 N9        30.03R WCI   7
YOUNGSTOWN     LGT SNOW  19  12  74 N14       29.99R WCI   6
$$

OHZ042-051>053-060>062-070>072-077>081-272100-
  SOUTHWEST OHIO

CITY           SKY/WX    TMP DP  RH WIND       PRES   REMARKS
CINC-COVINGTON SUNNY     31  13  47 N13       30.08R WCI  21
CINC-LUNKEN    SUNNY     30  14  51 N7        30.12R WCI  23
HAMILTON       SUNNY     28  15  58 N9        30.12R WCI  19
DAYTON         NOT AVBL
WRIGHT-PAT AFB MOSUNNY   23  13  64 N7        30.10R WCI  15
DAYTON GENERAL SUNNY     25  13  60 NW7       30.08R WCI  17
WILMINGTON     MOSUNNY   23  12  62 N9        30.07R WCI  13
$$

OHZ036-037-039>041-045>050-054>059-063>069-073>076-082>088-272100-
  CENTRAL AND SOUTHEAST OHIO

CITY           SKY/WX    TMP DP  RH WIND       PRES   REMARKS
COLUMBUS       PTSUNNY   23  13  65 N7        30.06R WCI  15
OSU AIRPORT    SUNNY     21  11  65 N12       30.06R WCI   9
BOLTON FIELD   PTSUNNY   21  12  68 NW10      30.07R WCI  10
RICKENBACK AFB NOT AVBL
NEWARK         CLOUDY    23  12  62 NW9       30.04R WCI  13
MARION         MOSUNNY   23  13  65 N9        30.07R WCI  13
LANCASTER      CLOUDY    23  13  65 N9        30.06R WCI  13
ZANESVILLE     CLOUDY    22  12  65 N7        30.03R WCI  13
NEW PHILLY     CLOUDY    23  13  65 NW12      30.03R WCI  12
$$


USA.gov is the U.S. government's official web portal to all federal, state and local government web resources and services.